Flag Weather past 2 weeks in Unna, North Rhine-Westphalia, Germany

Now
48 °F

Sunny.


Feels Like: 45 °F
Forecast: 34 / 48 °F
Wind: 7 mph from Northwest

Location: Dortmund / Wickede

Current Time: Nov 24, 2014 at 4:07:34 PM

Latest Report: Nov 24, 2014 at 3:20 PM


Visibility: 10 mi

Pressure: 30.27 "Hg

Humidity: 62%

Dew point: 36 °F

Location of UnnaLocation

Historic Weather in Unna — Graph

°F

Unna temperature yesterday

Maximum temperature yesterday: 61 °F (at 11:20 AM)
Minimum temperature yesterday: 48 °F (at 8:50 AM)
Average temperature yesterday: 56 °F

Past Weeks' High & Low Weather Summary

 TemperatureHumidityPressure
High61 °F (Nov 23, 11:20 AM)93% (Nov 11, 7:50 AM)30.33 "Hg (Nov 11, 7:50 AM)
Low32 °F (Nov 21, 5:20 AM)51% (Nov 9, 2:20 PM)29.50 "Hg (Nov 16, 12:50 PM)
Average48 °F81%29.88 "Hg
* Reported Nov 9 2:20 PM — Nov 24 2:50 PM, Unna, Weather by CustomWeather, © 2014

Note: Actual official high and low records may vary slightly from our data, if they occured in-between our weather recording intervals... More about our weather records

Advertising

Unna weather history for previous 24 hours

 ConditionsComfort  
Time TempWeatherWind HumidityBarometerVisibility
2:50 PM
Nov 24
48 °FSunny.8 mph58%30.27 "Hg10 mi
2:20 PM50 °FSunny.6 mph58%30.27 "Hg10 mi
1:50 PM50 °FPassing clouds.6 mph58%30.27 "HgN/A
1:20 PM48 °FSunny.7 mph62%30.27 "Hg10 mi
12:50 PM48 °FSunny.6 mph62%30.27 "Hg10 mi
12:20 PM48 °FPassing clouds.6 mph71%30.27 "HgN/A
11:50 AM46 °FPassing clouds.6 mph76%30.27 "HgN/A
11:20 AM48 °FPassing clouds.6 mph76%30.27 "HgN/A
10:50 AM46 °FSunny.7 mph82%30.27 "Hg10 mi
10:20 AM46 °FPassing clouds.7 mph82%30.24 "HgN/A
9:50 AM46 °FPassing clouds.6 mph82%30.24 "HgN/A
9:20 AM43 °FSunny.6 mph87%30.24 "Hg10 mi
8:50 AM43 °FSunny.5 mph87%30.21 "Hg10 mi
8:20 AM45 °FPartly sunny.8 mph87%30.21 "HgN/A
7:50 AM46 °FPassing clouds.8 mph82%30.18 "HgN/A
7:20 AM46 °FPassing clouds.13 mph82%30.18 "HgN/A
6:50 AM48 °FLight rain. Passing clouds.14 mph87%30.15 "Hg5 mi
6:20 AM48 °FLight rain. Passing clouds.7 mph87%30.12 "Hg5 mi
5:50 AM48 °FLight rain. Passing clouds.5 mph87%30.09 "HgN/A
5:20 AM48 °FPassing clouds.5 mph87%30.09 "HgN/A
10:50 PM
Nov 23
54 °FClear.14 mph67%29.98 "Hg10 mi
10:20 PM54 °FClear.13 mph67%29.98 "Hg10 mi
9:20 PM54 °FClear.15 mph67%29.95 "Hg10 mi
8:50 PM55 °FClear.16 mph63%29.95 "Hg10 mi
8:20 PM57 °FClear.15 mph59%29.95 "Hg10 mi
7:50 PM55 °FPassing clouds.6 mph67%29.98 "HgN/A
7:20 PM52 °FPassing clouds.6 mph72%29.98 "HgN/A
6:50 PM54 °FClear.7 mph72%29.98 "Hg10 mi
6:20 PM57 °FClear.13 mph63%29.98 "Hg10 mi
5:50 PM57 °FClear.10 mph67%29.98 "Hg10 mi
5:20 PM57 °FClear.13 mph67%29.98 "Hg10 mi
4:50 PM57 °FClear.10 mph67%29.98 "Hg10 mi
4:20 PM57 °FSunny.13 mph67%29.98 "Hg10 mi
Weather by CustomWeather, © 2014

See weather overviewHow to use our weather pages